Regional Weather Roundup
Issued by NWS

Home | Current Version | Previous Version | Graphics & Text | Print | Product List | Glossary On
Versions: 1 2 3 4 5 6 7 8 9 10 11 12 13 14 15 16 17 18 19 20 21 22 23 24 25 26 27 28 29 30 31 32 33 34 35 36 37 38 39 40 41 42 43 44 45 46 47 48 49 50
000
ASUS43 KLSX 211507
RWRMO

WEATHER SUMMARY FOR MISSOURI
NATIONAL WEATHER SERVICE SPRINGFIELD MO
900 AM CST SUN JAN 21 2018

NOTE: "FAIR" INDICATES FEW OR NO CLOUDS BELOW 12,000 FEET WITH NO
       SIGNIFICANT WEATHER AND/OR OBSTRUCTIONS TO VISIBILITY.
       CURRENT SKY AND/OR WEATHER CONDITIONS ARE NOT AVAILABLE FOR
       CHILLICOTHE AND FARMINGTON.

MOZ001>031-035>038-043-044-053-054-211600-
...NORTHERN AND WESTERN MISSOURI...

CITY           SKY/WX    TMP DP  RH WIND       PRES   REMARKS
KANSAS CTY INT CLOUDY    52  49  89 SE9       29.78S
KANSAS C DTWN  CLOUDY    52  47  83 E3        29.78S
LEE`S SUMMIT   CLOUDY    52  51  97 SE10      29.79S
ST JOSEPH      CLOUDY    44  44 100 CALM      29.78S FOG
CHILLICOTHE      N/A     49  45  86 SE6       29.83F
KIRKSVILLE     CLOUDY    47  47 100 SE8       29.86S

$$
MOZ066>068-077>081-088>096-101>105-211600-
...SOUTHWEST MISSOURI...

CITY           SKY/WX    TMP DP  RH WIND       PRES   REMARKS
SPRINGFIELD    SUNNY     56  53  90 S17       29.87S
JOPLIN         SUNNY     60  55  83 S22G32    29.83R
BRANSON        MOSUNNY   59  54  82 S8        29.93R

$$
MOZ032>034-039>042-045>050-055>058-069>072-211600-
...CENTRAL MISSOURI...

CITY           SKY/WX    TMP DP  RH WIND       PRES   REMARKS
COLUMBIA       MOSUNNY   51  50  96 SE9       29.88S
JEFFERSON CITY MOSUNNY   43  42  97 SE8       29.89S FOG
ROLLA          SUNNY     56  53  90 S15G23    29.91R
SEDALIA        CLOUDY    50  50 100 SE7       29.85S
WHITEMAN AFB   PTSUNNY   51  48  89 S8        29.78S
WARRENSBURG    CLOUDY    50  46  87 SE6       29.82S
OSAGE BEACH    SUNNY     53  51  93 S8        29.88S

$$
MOZ051-052-059>065-211600-
...EAST CENTRAL MISSOURI...

CITY           SKY/WX    TMP DP  RH WIND       PRES   REMARKS
ST LOUIS INTL  PTSUNNY   50  50 100 E9        29.96S FOG
SPIRIT OF STL  FOG       47  47 100 E3        29.94S VSB 1/2
ST CHARLES     CLOUDY    47  46  97 E6        29.95S FOG

$$
MOZ072>076-082>087-097>100-106>115-211600-
...SOUTH CENTRAL AND SOUTHEAST MISSOURI...

CITY           SKY/WX    TMP DP  RH WIND       PRES   REMARKS
CAPE GIRARDEAU CLOUDY    51  49  92 S18G25    30.05S
FARMINGTON     CLOUDY    54  53  97 S14       29.99R FOG
POPLAR BLUFF   CLOUDY    52  51  97 S9        30.04R FOG
WEST PLAINS    CLOUDY    56  55  97 S12       29.98S

$$



USA.gov is the U.S. government's official web portal to all federal, state and local government web resources and services.